EW4258 Weather Reports


time (UTC)temp
C
wind
direction
speed
KPH
gust
KPH
rain 1hr
cm
rain 24hr
cm
rain mn
cm
humidity
%
barometer
mb
20190425201112 16 67 6.4 11.3 0.00 0.00 0.00 43 1014.9
20190425200112 16 157 6.4 9.7 0.00 0.00 0.00 42 1014.8
20190425195112 16 135 6.4 11.3 0.00 0.00 0.00 42 1014.8
20190425194112 16 135 4.8 6.4 0.00 0.00 0.00 41 1015.2
20190425193112 17 202 4.8 4.8 0.00 0.00 0.00 41 1015.2
20190425192112 17 135 6.4 6.4 0.00 0.00 0.00 40 1015.1
20190425191112 17 157 6.4 6.4 0.00 0.00 0.00 40 1015.1
20190425190112 17 112 4.8 14.5 0.00 0.00 0.00 41 1015.2
20190425185112 17 135 3.2 6.4 0.00 0.00 0.00 40 1015.2
20190425184112 17 135 3.2 3.2 0.00 0.00 0.00 39 1014.9
20190425183112 17 202 1.6 3.2 0.00 0.00 0.00 38 1014.9
20190425182112 17 202 4.8 3.2 0.00 0.00 0.00 38 1014.8
20190425181112 18 90 4.8 9.7 0.00 0.00 0.00 38 1014.8
20190425180112 18 90 3.2 3.2 0.00 0.00 0.00 37 1014.8
20190425175112 18 135 6.4 3.2 0.00 0.00 0.00 37 1014.8
20190425174112 19 112 4.8 9.7 0.00 0.00 0.00 36 1015.0
20190425173112 19 67 4.8 4.8 0.00 0.00 0.00 36 1015.0
20190425172112 20 135 4.8 4.8 0.00 0.00 0.00 35 1015.1
20190425171112 20 135 4.8 4.8 0.00 0.00 0.00 35 1015.1
20190425170112 20 90 4.8 6.4 0.00 0.00 0.00 35 1014.8
20190425165112 21 135 3.2 4.8 0.00 0.00 0.00 34 1014.8
20190425164112 21 135 4.8 6.4 0.00 0.00 0.00 33 1014.9
20190425163112 22 135 3.2 6.4 0.00 0.00 0.00 32 1014.9
20190425162112 22 135 6.4 6.4 0.00 0.00 0.00 31 1014.8
20190425161112 23 225 6.4 3.2 0.00 0.00 0.00 30 1014.8
20190425160112 23 67 6.4 11.3 0.00 0.00 0.00 30 1014.5
20190425155112 23 202 6.4 9.7 0.00 0.00 0.00 30 1014.5
20190425154112 22 135 4.8 8.0 0.00 0.00 0.00 31 1014.8
20190425153112 22 157 3.2 3.2 0.00 0.00 0.00 31 1014.8
20190425152112 22 135 6.4 6.4 0.00 0.00 0.00 30 1014.8
20190425151112 22 112 4.8 11.3 0.00 0.00 0.00 30 1014.8
20190425150112 22 67 6.4 8.0 0.00 0.00 0.00 31 1014.9
20190425145112 22 90 8.0 8.0 0.00 0.00 0.00 32 1014.9
20190425144112 22 90 8.0 14.5 0.00 0.00 0.00 30 1015.1
20190425143112 22 90 6.4 11.3 0.00 0.00 0.00 30 1015.1
20190425142112 22 112 9.7 8.0 0.00 0.00 0.00 29 1015.0
20190425141112 23 90 8.0 12.9 0.00 0.00 0.00 29 1015.0
20190425140112 23 90 9.7 11.3 0.00 0.00 0.00 28 1014.9
20190425135111 23 135 9.7 9.7 0.00 0.00 0.00 28 1014.9
20190425134111 23 67 8.0 12.9 0.00 0.00 0.00 28 1015.2
20190425133112 23 22 8.0 11.3 0.00 0.00 0.00 29 1015.2
20190425132112 23 202 4.8 6.4 0.00 0.00 0.00 28 1015.4
20190425131112 23 202 6.4 3.2 0.00 0.00 0.00 29 1015.4
20190425130111 23 67 9.7 9.7 0.00 0.00 0.00 29 1015.6
20190425125112 23 135 9.7 11.3 0.00 0.00 0.00 29 1015.6
20190425124112 23 67 9.7 11.3 0.00 0.00 0.00 28 1015.5
20190425123112 23 135 9.7 11.3 0.00 0.00 0.00 28 1015.5
20190425122112 23 112 8.0 12.9 0.00 0.00 0.00 29 1015.6
20190425121112 24 112 11.3 9.7 0.00 0.00 0.00 28 1015.6
20190425120112 24 135 12.9 14.5 0.00 0.00 0.00 29 1015.3
20190425115112 23 112 9.7 12.9 0.00 0.00 0.00 29 1015.3
20190425114111 23 135 11.3 24.1 0.00 0.00 0.00 28 1015.7
20190425113111 23 90 9.7 17.7 0.00 0.00 0.00 29 1015.7
20190425112112 23 90 9.7 11.3 0.00 0.00 0.00 28 1015.8
20190425111112 23 157 9.7 9.7 0.00 0.00 0.00 28 1015.8
20190425110111 23 135 11.3 12.9 0.00 0.00 0.00 28 1015.3
20190425105112 23 135 9.7 12.9 0.00 0.00 0.00 27 1015.3
20190425104112 23 135 9.7 8.0 0.00 0.00 0.00 27 1015.4
20190425103112 23 157 9.7 11.3 0.00 0.00 0.00 27 1015.4
20190425102112 23 135 12.9 24.1 0.00 0.00 0.00 27 1015.4
20190425101112 23 112 11.3 22.5 0.00 0.00 0.00 27 1015.4
20190425100112 23 135 9.7 14.5 0.00 0.00 0.00 28 1015.6
20190425095111 23 135 11.3 11.3 0.00 0.00 0.00 28 1015.6
20190425094111 23 202 11.3 22.5 0.00 0.00 0.00 27 1015.4
20190425093112 23 157 11.3 22.5 0.00 0.00 0.00 28 1015.4
20190425092111 22 67 9.7 17.7 0.00 0.00 0.00 31 1015.7
20190425091112 22 112 8.0 17.7 0.00 0.00 0.00 31 1015.7
20190425090112 22 337 4.8 4.8 0.00 0.00 0.00 35 1015.8
20190425085111 21 157 0.0 1.6 0.00 0.00 0.00 40 1015.8
20190425084112 20 180 0.0 1.6 0.00 0.00 0.00 42 1016.0
20190425083111 20 135 1.6 0.0 0.00 0.00 0.00 42 1016.0
20190425082111 19 315 0.0 3.2 0.00 0.00 0.00 43 1016.1
20190425081112 18 315 1.6 0.0 0.00 0.00 0.00 44 1016.1
20190425080112 18 157 1.6 0.0 0.00 0.00 0.00 46 1016.2
20190425075111 17 360 0.0 1.6 0.00 0.00 0.00 47 1016.2
20190425074112 16 337 1.6 0.0 0.00 0.00 0.00 48 1016.4
20190425073111 16 90 0.0 3.2 0.00 0.00 0.00 48 1016.4
20190425072111 16 315 0.0 0.0 0.00 0.00 0.00 48 1016.5
20190425071111 15 90 0.0 0.0 0.00 0.00 0.00 49 1016.5
20190425070111 15 157 0.0 1.6 0.00 0.00 0.00 49 1016.6
20190425065111 13 45 0.0 0.0 0.00 0.00 0.00 51 1016.6
20190425064112 13 135 0.0 0.0 0.00 0.00 0.00 52 1016.6
20190425063111 13 157 0.0 0.0 0.00 0.00 0.00 52 1016.6
20190425062111 13 360 0.0 0.0 0.00 0.00 0.00 53 1016.6
20190425061111 12 22 0.0 0.0 0.00 0.00 0.00 54 1016.6
20190425060112 12 270 0.0 0.0 0.00 0.00 0.00 56 1016.6
20190425055111 12 292 0.0 0.0 0.00 0.00 0.00 58 1016.6
20190425054111 11 292 0.0 0.0 0.00 0.00 0.00 62 1016.5
20190425053111 10 315 1.6 1.6 0.00 0.00 0.00 65 1016.5
20190425052111 9 315 0.0 1.6 0.00 0.00 0.00 69 1016.2
20190425051111 5 67 1.6 0.0 0.00 0.00 0.00 72 1016.2
20190425050111 4 90 3.2 6.4 0.00 0.00 0.00 72 1016.1
20190425045112 4 67 1.6 4.8 0.00 0.00 0.00 71 1016.1
20190425044112 4 135 1.6 1.6 0.00 0.00 0.00 70 1015.8
20190425043111 4 90 1.6 3.2 0.00 0.00 0.00 70 1015.8
20190425042111 4 22 0.0 3.2 0.00 0.00 0.00 70 1015.6
20190425041111 4 90 0.0 1.6 0.00 0.00 0.00 70 1015.6
20190425040111 4 135 0.0 1.6 0.00 0.00 0.00 70 1015.5
20190425035112 4 112 0.0 0.0 0.00 0.00 0.00 70 1015.5
20190425034111 5 22 0.0 0.0 0.00 0.00 0.00 69 1015.2
20190425033111 5 90 1.6 0.0 0.00 0.00 0.00 69 1015.2
20190425032111 5 292 1.6 0.0 0.00 0.00 0.00 68 1014.9
20190425031111 5 67 1.6 4.8 0.00 0.00 0.00 69 1014.9
20190425030111 5 135 1.6 3.2 0.00 0.00 0.00 69 1015.1
20190425025111 5 67 1.6 3.2 0.00 0.00 0.00 69 1015.1
20190425024111 5 225 1.6 1.6 0.00 0.00 0.00 68 1015.1
20190425023111 5 45 1.6 0.0 0.00 0.00 0.00 68 1015.1
20190425022111 5 67 1.6 1.6 0.00 0.00 0.00 66 1015.4
20190425021111 6 112 3.2 4.8 0.00 0.00 0.00 67 1015.4
20190425020111 6 157 1.6 0.0 0.00 0.00 0.00 66 1015.1
20190425015111 6 157 0.0 3.2 0.00 0.00 0.00 65 1015.1
20190425014112 6 90 0.0 0.0 0.00 0.00 0.00 64 1015.1
20190425013111 6 90 1.6 0.0 0.00 0.00 0.00 64 1015.1
20190425012111 7 337 1.6 3.2 0.00 0.00 0.00 63 1014.9
20190425011111 7 225 1.6 3.2 0.00 0.00 0.00 63 1014.9
20190425010111 7 180 0.0 0.0 0.00 0.00 0.00 62 1014.9
20190425005111 7 360 0.0 0.0 0.00 0.00 0.00 61 1014.9
20190425004112 8 90 1.6 3.2 0.00 0.00 0.00 61 1014.9
20190425003111 8 247 1.6 0.0 0.00 0.00 0.00 60 1014.9
20190425002111 8 45 1.6 0.0 0.00 0.00 0.00 60 1015.1
20190425001111 8 112 1.6 0.0 0.00 0.00 0.00 59 1015.1
20190425000111 8 337 3.2 4.8 0.00 0.00 0.00 59 1014.6
20190424235111 8 135 4.8 11.3 0.00 0.00 0.00 59 1014.6
20190424234111 9 90 3.2 8.0 0.00 0.00 0.00 59 1014.9
20190424233111 9 135 3.2 1.6 0.00 0.00 0.00 57 1014.9
20190424232111 10 337 3.2 8.0 0.00 0.00 0.00 56 1014.5
20190424231112 10 135 4.8 6.4 0.00 0.00 0.00 57 1014.5
20190424230111 10 315 3.2 8.0 0.00 0.00 0.00 56 1014.5
20190424225111 10 315 1.6 1.6 0.00 0.00 0.00 54 1014.5
20190424224111 10 45 1.6 3.2 0.00 0.00 0.00 54 1014.2
20190424223111 11 202 1.6 3.2 0.00 0.00 0.00 52 1014.2
20190424222111 11 202 1.6 4.8 0.00 0.00 0.00 51 1013.8
20190424221111 12 135 0.0 3.2 0.00 0.00 0.00 50 1013.8
20190424220111 12 135 1.6 0.0 0.00 0.00 0.00 48 1013.6
20190424215111 13 67 1.6 1.6 0.00 0.00 0.00 48 1013.6
20190424214111 13 22 3.2 3.2 0.00 0.00 0.00 47 1013.2
20190424213111 13 90 3.2 4.8 0.00 0.00 0.00 47 1013.2
20190424212111 13 337 4.8 3.2 0.00 0.00 0.00 47 1013.0
20190424211111 13 90 4.8 6.4 0.00 0.00 0.00 48 1013.0
20190424210111 13 135 3.2 6.4 0.00 0.00 0.00 47 1013.4
20190424205111 13 45 4.8 6.4 0.00 0.00 0.00 47 1013.4
20190424204111 14 157 6.4 8.0 0.00 0.00 0.00 45 1013.0
20190424203111 15 135 6.4 8.0 0.00 0.00 0.00 44 1013.0
20190424202111 15 135 4.8 6.4 0.00 0.00 0.00 43 1012.9